Weather History for KDAB - January, 2013

Change the Weather History Date:

Thursday, January 10, 2013

  Actual Average Record
Temperature  
Mean Temperature 70 °F 58 °F  
Max Temperature 77 °F 68 °F 83 °F (1957)
Min Temperature 63 °F 47 °F 27 °F (1970)
Degree Days  
Heating Degree Days 0 8  
Month to date heating degree days 80  
Since 1 July heating degree days 346  
Cooling Degree Days 5 1  
Month to date cooling degree days 10  
Year to date cooling degree days 10  
Growing Degree Days 20 (Base 50)    
Moisture  
Dew Point 65 °F    
Average Humidity 88    
Maximum Humidity 100    
Minimum Humidity 66    
Precipitation  
Precipitation 0.00 in 0.09 in 4.39 in (1986)
Month to date precipitation 0.87  
Year to date precipitation 0.87  
Sea Level Pressure  
Sea Level Pressure 30.31 in    
Wind  
Wind Speed 2 mph (East)    
Max Wind Speed 13 mph    
Max Gust Speed 18 mph    
Visibility 6 miles    
Events Fog    
T = Trace of Precipitation, MM = Missing Value Source: NWS Daily Summary

Daily Weather History Graph

Daily Weather History Graph

Search for Another Location

Airport or City:

Trip Planner

Search our weather history database for the weather conditions in past years. The results will help you decide how hot, cold, wet, or windy it might be!

Date:

Astronomy

Jan. 10, 2013 Rise Set
Actual Time 7:19 AM EST 5:44 PM EST
Civil Twilight 6:53 AM EST 6:10 PM EST
Nautical Twilight 6:24 AM EST 6:39 PM EST
Astronomical Twilight 5:55 AM EST 7:08 PM EST
Moon 5:58 AM EST (1/10) 4:49 PM EST (1/10)
Length of Visible Light 11h 16m
Length of Day
10h 25m
Waning Crescent, 2% of the Moon is Illuminated
Jan 10
Waning Crescent
Jan 11
New
Jan 18
First Quarter
Jan 26
Full
Feb 3
Last Quarter

Hourly Weather History & Observations

Time (EST) Temp. Dew Point Humidity Pressure Visibility Wind Dir Wind Speed Gust Speed Precip Events Conditions
12:53 AM 70.0 °F 69.1 °F 97% 30.33 in 7.0 mi Calm Calm - N/A   Partly Cloudy
1:53 AM 68.0 °F 66.9 °F 96% 30.33 in 6.0 mi Calm Calm - N/A Fog Patches of Fog
2:38 AM 66.2 °F 66.2 °F 100% 30.34 in 2.0 mi Calm Calm - N/A Fog Patches of Fog
2:49 AM 66.2 °F 66.2 °F 100% 30.33 in 1.0 mi Calm Calm - N/A   Scattered Clouds
2:53 AM 66.0 °F 66.0 °F 100% 30.33 in 1.0 mi Calm Calm - N/A   Scattered Clouds
3:06 AM 66.2 °F 66.2 °F 100% 30.33 in 0.5 mi ENE 3.5 mph - N/A Fog Fog
3:53 AM 66.0 °F 66.0 °F 100% 30.31 in 0.5 mi Calm Calm - N/A Fog Fog
4:35 AM 64.4 °F 64.4 °F 100% 30.31 in 0.2 mi ENE 3.5 mph - N/A Fog Fog
4:53 AM 64.0 °F 64.0 °F 100% 30.30 in 0.2 mi ENE 3.5 mph - N/A Fog Fog
5:53 AM 66.0 °F 64.9 °F 96% 30.31 in 0.2 mi Calm Calm - N/A Fog Fog
6:53 AM 63.0 °F 63.0 °F 100% 30.33 in 0.2 mi Calm Calm - N/A Fog Fog
7:53 AM 63.0 °F 63.0 °F 100% 30.33 in 0.2 mi Calm Calm - N/A Fog Fog
8:02 AM 64.4 °F 64.4 °F 100% 30.33 in 1.0 mi Calm Calm - N/A   Scattered Clouds
8:11 AM 64.4 °F 64.4 °F 100% 30.34 in 2.0 mi Calm Calm - N/A   Scattered Clouds
8:23 AM 66.2 °F 66.2 °F 100% 30.34 in 4.0 mi Calm Calm - N/A   Scattered Clouds
8:53 AM 70.0 °F 69.1 °F 97% 30.34 in 5.0 mi ENE 3.5 mph - N/A   Mostly Cloudy
9:53 AM 75.0 °F 66.9 °F 76% 30.34 in 10.0 mi Variable 5.8 mph - N/A   Scattered Clouds
10:53 AM 75.9 °F 64.9 °F 69% 30.33 in 10.0 mi Variable 6.9 mph - N/A   Scattered Clouds
11:53 AM 77.0 °F 64.9 °F 66% 30.29 in 10.0 mi East 12.7 mph 18.4 mph N/A   Scattered Clouds
12:53 PM 77.0 °F 64.9 °F 66% 30.27 in 10.0 mi East 9.2 mph - N/A   Mostly Cloudy
1:53 PM 75.9 °F 66.0 °F 71% 30.28 in 10.0 mi East 10.4 mph 16.1 mph N/A   Mostly Cloudy
2:53 PM 75.9 °F 66.0 °F 71% 30.28 in 10.0 mi East 10.4 mph - N/A   Mostly Cloudy
3:53 PM 75.9 °F 66.0 °F 71% 30.30 in 10.0 mi East 5.8 mph - N/A   Mostly Cloudy
4:53 PM 75.0 °F 66.0 °F 73% 30.29 in 10.0 mi East 5.8 mph - N/A   Mostly Cloudy
5:53 PM 72.0 °F 64.9 °F 78% 30.29 in 10.0 mi ESE 5.8 mph - N/A   Mostly Cloudy
6:53 PM 71.1 °F 64.9 °F 81% 30.30 in 10.0 mi East 4.6 mph - N/A   Scattered Clouds
7:53 PM 70.0 °F 64.0 °F 81% 30.30 in 10.0 mi East 4.6 mph - N/A   Scattered Clouds
8:53 PM 69.1 °F 64.9 °F 87% 30.30 in 10.0 mi East 3.5 mph - N/A   Scattered Clouds
9:53 PM 69.1 °F 64.0 °F 84% 30.31 in 10.0 mi Calm Calm - N/A   Scattered Clouds
10:53 PM 66.9 °F 63.0 °F 87% 30.31 in 10.0 mi Calm Calm - N/A   Partly Cloudy
11:53 PM 68.0 °F 63.0 °F 84% 30.29 in 10.0 mi Calm Calm - N/A   Partly Cloudy